OpenBCM V1.08-5-g2f4a (Linux)

Packet Radio Mailbox

IZ3LSV

[San Dona' di P. JN]

 Login: GUEST





  
CX2SA  > KEPS     25.10.24 01:30l 396 Lines 18915 Bytes #122 (0) @ AMSAT
BID : ORB24299.1
Read: GUEST
Subj: 2Line Orbital Elements 24299.AMSAT
Path: IZ3LSV<I0OJJ<EA2RCF<CX2SA
Sent: 241025/0024Z @:CX2SA.SAL.URY.SOAM #:44895 [Salto] FBB7.00e $:ORB24299.1
From: CX2SA@CX2SA.SAL.URY.SOAM
To  : KEPS@AMSAT


QST de W1STR

AMSAT Orbital Elements for Amateur Satellites in TLE Format
>From Orbital Analysis Office
New England Sci-Tech STEM Education Center
Natick, MA October 25, 2024
To all radio amateurs


These element sets describe the orbits of various satellites
in use by the amateur radio community. For details see:
www.amsat.org/keplerian-elements-formats/

A daily update of element sets is available at:
www.amsat.org/tle/daily-bulletin.txt
or without bulletin text:
www.amsat.org/tle/dailytle.txt


AO-07
1 07530U 74089B   24298.90053622 -.00000018  00000-0  17503-3 0  9994
2 07530 101.9887 294.8080 0012040 195.6552 224.4256 12.53681332285534
UO-11
1 14781U 84021B   24298.47537012  .00004756  00000-0  52662-3 0  9996
2 14781  97.7233 264.0588 0008695  22.7868 337.3733 14.87763688167706
AO-27
1 22825U 93061C   24298.44179552  .00000338  00000-0  14691-3 0  9998
2 22825  98.7729 352.4723 0009343  64.5255 295.6893 14.30625100621097
FO-29
1 24278U 96046B   24298.51064581  .00000043  00000-0  81097-4 0  9999
2 24278  98.5829 216.2199 0349407 213.1549 144.7253 13.53218222391927
NOAA-15
1 25338U 98030A   24298.84236188  .00000491  00000-0  22030-3 0  9990
2 25338  98.5595 323.2202 0009337 309.8398  50.1961 14.26761212375920
GO-32
1 25397U 98043D   24298.51427119  .00000379  00000-0  18479-3 0  9996
2 25397  98.9407 267.2817 0002061 118.8344 241.3041 14.24162509365829
ISS
1 25544U 98067A   24298.71203389  .00031337  00000-0  54762-3 0  9992
2 25544  51.6420  33.8287 0009267 102.6488  50.6267 15.50333707478632
NO-44
1 26931U 01043C   24298.54654425  .00000626  00000-0  26679-3 0  9996
2 26931  67.0527 357.3121 0007566 264.3285  95.6954 14.31450646204464
SO-50
1 27607U 02058C   24298.10621684  .00003874  00000-0  52467-3 0  9999
2 27607  64.5545 185.0034 0029357  43.9719 316.3714 14.80054250175392
CO-55
1 27844U 03031E   24298.57198861  .00001039  00000-0  47540-3 0  9998
2 27844  98.6795 303.8393 0010636 125.0919 235.1258 14.23568370106195
CO-57
1 27848U 03031J   24298.48838599  .00000886  00000-0  41289-3 0  9994
2 27848  98.6826 303.9244 0010270 140.5335 219.6593 14.22966316105928
RS-22
1 27939U 03042A   24298.86121738  .00003894  00000-0  64318-3 0  9999
2 27939  98.3061  97.3255 0011907  15.8089 118.3014 14.70951011127332
NOAA-18
1 28654U 05018A   24298.83544406  .00000500  00000-0  28967-3 0  9998
2 28654  98.8650  14.6735 0014935  58.5572 301.7058 14.13384344  1575
CO-58
1 28895U 05043F   24298.85730951  .00005467  00000-0  93893-3 0  9994
2 28895  98.2196  75.1144 0014402 309.6278  50.3655 14.69020375 13710
CO-65
1 32785U 08021C   24298.47361638  .00011618  00000-0  94706-3 0  9995
2 32785  97.7752 263.0594 0007609 258.7663 101.2704 14.99613293894836
AAUSAT2
1 32788U 08021F   24298.47506581  .00071322  00000-0  24942-2 0  9998
2 32788  97.6046 280.0917 0008991  83.0136 277.2126 15.29223260897998
CO-66
1 32791U 08021J   24298.43779509  .00020395  00000-0  12990-2 0  9994
2 32791  97.7057 269.3802 0002849 191.5572 168.5591 15.08782448895972
RS-30
1 32953U 08025A   24298.80597229  .00000024  00000-0  10151-3 0  9991
2 32953  82.5081   8.8625 0019858 179.2683 180.8429 12.43151185745238
PRISM
1 33493U 09002B   24298.43456038  .00068254  00000-0  22052-2 0  9999
2 33493  98.1859 358.1186 0009913 160.2933 199.8691 15.31796654858733
NOAA-19
1 33591U 09005A   24298.80555264  .00000446  00000-0  26293-3 0  9994
2 33591  99.0318 355.8878 0012822 287.7432  72.2340 14.13166903809936
SRMSAT
1 37841U 11058D   24298.73943213  .00000751  00000-0  26530-3 0  9997
2 37841  19.9713  93.1341 0011822  79.0525  38.7482 14.11251309673104
RS-40
1 38735U 12041C   24298.56488580  .00000077  00000-0  48823-3 0  9995
2 38735  82.4720  89.2116 0016663 297.8224  62.1166 12.42618944555248
ZACUBE-1
1 39417U 13066B   24298.82762000  .00013636  00000-0  13182-2 0  9996
2 39417  97.7499 252.2008 0050702  90.6472 270.0557 14.91935495590899
Delfi-N3xt
1 39428U 13066N   24298.49299447  .00022637  00000-0  26435-2 0  9997
2 39428  97.8328 213.6600 0096853  29.6542 331.0113 14.81778679585213
GOMX-1
1 39430U 13066Q   24298.70443336  .00006021  00000-0  97458-3 0  9995
2 39430  97.7097 165.2189 0136163 200.0473 159.5354 14.65581309582007
LO-74
1 39440U 13066AA  24298.39938478  .00009463  00000-0  10507-2 0  9999
2 39440  97.8234 239.5295 0065395 209.6617 150.0883 14.85863389587504
AO-73
1 39444U 13066AE  24298.44061613  .00016863  00000-0  14851-2 0  9995
2 39444  97.7358 255.3432 0048039  71.1403 289.5018 14.95641139589401
DTUSAT-2
1 40030U 14033W   24298.83943165  .00018742  00000-0  14336-2 0  9993
2 40030  98.0242 255.1074 0011822 102.2522 258.0026 15.01906964562643
EO-80
1 40032U 14033Y   24298.40489685  .00015541  00000-0  11884-2 0  9999
2 40032  98.0179 254.6167 0012713  60.9669 299.2826 15.01952468562042
XW-2C
1 40906U 15049H   24298.78945128  .00100051  00000-0  13147-2 0  9992
2 40906  97.4668 320.1400 0006418 165.0447 195.0999 15.58143507504535
XW-2D
1 40907U 15049J   24298.84276578  .00380625  00000-0  16551-2 0  9995
2 40907  97.4522 325.1400 0005462 152.6291 207.5267 15.83818555504938
LILACSAT-2
1 40908U 15049K   24298.57900909  .00019578  00000-0  66246-3 0  9991
2 40908  97.5235 308.5754 0009106 250.7437 109.2819 15.30611626503256
XW-2B
1 40911U 15049N   24298.79762843  .00328145  00000-0  17020-2 0  9990
2 40911  97.4508 324.8512 0005438 153.0288 207.1263 15.80123197504773
IO-86
1 40931U 15052B   24270.29994034  .00002074  00000-0  19195-3 0  9996
2 40931   5.9998 350.0993 0012711  76.7416 283.4129 14.78150863486449
ChubuSat-2
1 41338U 16012B   24298.29357156  .00011533  00000-0  66684-3 0  9998
2 41338  31.0009 278.3635 0009703  96.5085 263.6658 15.11006716477125
ChubuSat-3
1 41339U 16012C   24298.36329180  .00010449  00000-0  61865-3 0  9994
2 41339  31.0073 277.3601 0009915 100.3537 259.8219 15.10129197477016
Horyu-4
1 41340U 16012D   24298.12904376  .00028249  00000-0  11774-2 0  9996
2 41340  31.0001 211.9239 0008571 221.6150 138.3840 15.22502412477777
Lapan A3
1 41603U 16040E   24298.81420806  .00007340  00000-0  27949-3 0  9997
2 41603  97.1421 306.7942 0011923  11.3976 348.7531 15.26949712462991
Pratham
1 41783U 16059A   24298.47800327  .00002480  00000-0  46287-3 0  9994
2 41783  97.8331 311.7689 0031466 332.8479  27.1079 14.65500079431479
CAS-2T
1 41847U 16066G   24298.47126243  .00004977  00000-0  72193-3 0  9999
2 41847  98.4477   8.8006 0351514 147.6454 214.6832 14.42152590418122
CAS-4B
1 42759U 17034B   24298.81705978  .00047245  00000-0  12914-2 0  9993
2 42759  43.0145 210.0599 0012345 157.3582 202.7820 15.36575924407287
CAS-4A
1 42761U 17034D   24298.87075059  .00045787  00000-0  12449-2 0  9994
2 42761  43.0180 207.9783 0012870 167.6347 192.4827 15.36746756407303
D-SAT
1 42794U 17036AF  24298.42798043  .00016150  00000-0  10354-2 0  9993
2 42794  97.4918 275.8622 0106225  68.9439 292.3108 15.03956311400129
TechnoSat
1 42829U 17042E   24298.55133701  .00008658  00000-0  72657-3 0  9996
2 42829  97.3873 112.5757 0011755   0.6960 359.4278 14.98521265396539
AO-91
1 43017U 17073E   24298.55266553  .00018502  00000-0  10623-2 0  9995
2 43017  97.5553 169.6464 0196599 219.5830 139.0900 14.97627251374992
TianYi 6
1 43158U 18008D   24289.57081905  .01911305  30434-2  22393-2 0  9995
2 43158  97.2486 341.2486 0006509 265.8690  94.1850 16.09457699373267
S-Net D
1 43186U 18014G   24298.70879057  .00012505  00000-0  83257-3 0  9995
2 43186  97.5756 198.3751 0007920 293.0345  67.0047 15.07234420367997
S-Net B
1 43187U 18014H   24298.44626033  .00011139  00000-0  74253-3 0  9999
2 43187  97.5764 198.0754 0008541 287.7516  72.2779 15.07215677367956
S-Net A
1 43188U 18014J   24298.31146801  .00011470  00000-0  76420-3 0  9992
2 43188  97.5770 198.0664 0008465 289.3480  70.6833 15.07226789367934
S-Net C
1 43189U 18014K   24298.44828027  .00011388  00000-0  75871-3 0  9991
2 43189  97.5788 198.1746 0010016 278.6897  81.3196 15.07218706366507
Ten-Koh
1 43677U 18084G   24298.43079040  .00006857  00000-0  58804-3 0  9994
2 43677  98.0777  96.0426 0013216 309.7133  50.2922 14.97786517326054
PO-101
1 43678U 18084H   24298.51923949  .00004667  00000-0  41752-3 0  9991
2 43678  98.0854 100.5133 0008208 327.9425  32.1295 14.96357429326257
QO-100
1 43700U 18090A   24298.49361934  .00000136  00000-0  00000+0 0  9995
2 43700   0.0117 193.5597 0001687  55.0432 348.2863  1.00272551 21892
MinXSS-2
1 43758U 18099A   24298.14559289  .00024298  00000-0  13232-2 0  9990
2 43758  97.5376 358.8390 0014138 230.8624 129.1352 15.14330222322265
AO-95
1 43770U 18099N   24298.40839437  .00016650  00000-0  10326-2 0  9993
2 43770  97.5293 353.6963 0011036 281.6918  78.3073 15.09754008322036
RANGE-B
1 43772U 18099Q   24298.13012297  .00031329  00000-0  16215-2 0  9995
2 43772  97.5074 357.5257 0005061 175.1801 184.9481 15.16152547322218
RANGE-A
1 43773U 18099R   24298.42277414  .00011045  00000-0  78380-3 0  9997
2 43773  97.4853 347.5830 0011296 251.6296 108.3703 15.04858107321852
MOVE-II
1 43780U 18099Y   24298.43220422  .00055075  00000-0  20854-2 0  9996
2 43780  97.5039   0.9462 0004626 234.6243 125.4563 15.26712647322565
SNUSat 2
1 43782U 18099AA  24298.11646692  .00013512  00000-0  87324-3 0  9990
2 43782  97.4967 351.8230 0013052 217.3598 142.6724 15.08267476321981
SnugLite
1 43784U 18099AC  24298.41630379  .00017138  00000-0  10565-2 0  9990
2 43784  97.4791 351.4121 0003259 206.3853 153.7211 15.10010037322115
ITASat 1
1 43786U 18099AE  24298.39139365  .00012889  00000-0  85304-3 0  9990
2 43786  97.4931 352.1435 0014770 271.3436  88.6100 15.07382378322016
